Livingston, MT

11:17 AM MDT on April 26, 2017 (GMT -0600)
Mission

Weather History for KLVM - September, 2013

Change the Weather History Date:

Sunday, September 1, 2013

  Actual Average Record
Temperature  
Mean Temperature 68 °F 61 °F  
Max Temperature 92 °F 79 °F 95 °F (1983)
Min Temperature 43 °F 44 °F 33 °F (2006)
Degree Days  
Heating Degree Days 0 5  
Month to date heating degree days 5  
Since 1 July heating degree days 123  
Cooling Degree Days 3 1  
Month to date cooling degree days 3 1  
Year to date cooling degree days 442 216  
Growing Degree Days 18 (Base 50)    
Moisture  
Dew Point 35 °F    
Average Humidity 38    
Maximum Humidity 65    
Minimum Humidity 11    
Precipitation  
Precipitation 0.00 in 0.04 in 0.91 in (1973)
Month to date precipitation 0.00 0.04  
Year to date precipitation 7.52 11.27  
Sea Level Pressure  
Sea Level Pressure 29.98 in    
Wind  
Wind Speed 4 mph (SE)    
Max Wind Speed 15 mph    
Max Gust Speed 18 mph    
Visibility 10 miles    
Events      
T = Trace of Precipitation, MM = Missing Value Source: NWS Daily Summary

Daily Weather History Graph

Daily Weather History Graph

Search for Another Location

Airport or City:

Trip Planner

Search our weather history database for the weather conditions in past years. The results will help you decide how hot, cold, wet, or windy it might be!

Date:

Astronomy

Sep. 01, 2013 Rise Set
Actual Time 6:43 AM MDT 7:59 PM MDT
Civil Twilight 6:12 AM MDT 8:29 PM MDT
Nautical Twilight 5:35 AM MDT 9:06 PM MDT
Astronomical Twilight 4:56 AM MDT 9:45 PM MDT
Moon 3:01 AM MDT (9/1) 5:44 PM MDT (9/1)
Length of Visible Light 14h 17m
Length of Day
13h 15m
Waning Crescent, 13% of the Moon is Illuminated
Sep 1
Waning Crescent
Sep 5
New
Sep 12
First Quarter
Sep 19
Full
Sep 26
Last Quarter

Hourly Weather History & Observations

Time (MDT) Temp. Windchill Dew Point Humidity Pressure Visibility Wind Dir Wind Speed Gust Speed Precip Events Conditions
12:53 AM 63.0 °F - 37.0 °F 38% 30.02 in 10.0 mi East 15.0 mph - N/A   Clear
1:53 AM 60.1 °F - 36.0 °F 41% 30.03 in 10.0 mi SE 10.4 mph - N/A   Clear
2:53 AM 57.9 °F - 36.0 °F 44% 30.03 in 10.0 mi SE 9.2 mph - N/A   Clear
3:53 AM 51.1 °F - 35.1 °F 54% 30.04 in 10.0 mi SSW 3.5 mph - N/A   Clear
4:53 AM 50.0 °F - 35.1 °F 57% 30.04 in 10.0 mi Calm Calm - N/A   Clear
5:53 AM 46.9 °F - 34.0 °F 61% 30.06 in 10.0 mi Calm Calm - N/A   Clear
6:53 AM 44.1 °F 42.5 °F 34.0 °F 68% 30.07 in 10.0 mi WSW 3.5 mph - N/A   Clear
7:53 AM 51.1 °F - 37.0 °F 59% 30.07 in 10.0 mi NW 5.8 mph - N/A   Clear
8:53 AM 57.0 °F - 37.0 °F 47% 30.06 in 10.0 mi NNW 3.5 mph - N/A   Clear
9:53 AM 64.0 °F - 37.0 °F 37% 30.05 in 10.0 mi Calm Calm - N/A   Clear
10:53 AM 69.1 °F - 37.0 °F 31% 30.03 in 10.0 mi Variable 4.6 mph - N/A   Clear
11:53 AM 75.0 °F - 37.0 °F 25% 30.00 in 10.0 mi Calm Calm - N/A   Clear
12:53 PM 79.0 °F - 39.0 °F 24% 29.97 in 10.0 mi Variable 5.8 mph - N/A   Clear
1:53 PM 84.0 °F - 35.1 °F 17% 29.95 in 10.0 mi ENE 6.9 mph - N/A   Clear
2:53 PM 87.1 °F - 34.0 °F 15% 29.92 in 10.0 mi Variable 3.5 mph - N/A   Clear
3:53 PM 89.1 °F - 34.0 °F 14% 29.91 in 10.0 mi Variable 6.9 mph - N/A   Clear
4:53 PM 91.0 °F - 30.9 °F 12% 29.89 in 10.0 mi Calm Calm - N/A   Clear
5:53 PM 91.0 °F - 30.0 °F 11% 29.88 in 10.0 mi North 3.5 mph - N/A   Clear
6:53 PM 89.1 °F - 30.0 °F 12% 29.89 in 10.0 mi Calm Calm - N/A   Clear
7:53 PM 79.0 °F - 30.9 °F 17% 29.90 in 10.0 mi ESE 4.6 mph - N/A   Clear
8:53 PM 77.0 °F - 30.9 °F 19% 29.90 in 10.0 mi SE 5.8 mph - N/A   Clear
9:53 PM 77.0 °F - 33.1 °F 20% 29.88 in 10.0 mi ESE 8.1 mph - N/A   Clear
10:53 PM 72.0 °F - 35.1 °F 26% 29.91 in 10.0 mi ESE 6.9 mph - N/A   Clear
11:53 PM 62.1 °F - 35.1 °F 37% 29.92 in 10.0 mi SSW 5.8 mph - N/A   Clear